• MPC Preparation (Info)

  • MPEC 2001-S67 : 2001 SJ276

    The following Minor Planet Electronic Circular may be linked-to from your own Web pages, but must not otherwise be redistributed electronically.

    A form allowing access to any MPEC is at the bottom of this page.


    Read MPEC 2001-S66 Read MPEC 2001-S68


    M.P.E.C. 2001-S67                                Issued 2001 Sept. 28, 21:08 UT
    
         The Minor Planet Electronic Circulars contain information on unusual
             minor planets and routine data on comets.  They are published
       on behalf of Commission 20 of the International Astronomical Union by the
              Minor Planet Center, Smithsonian Astrophysical Observatory,
                              Cambridge, MA 02138, U.S.A.
    
                 Prepared using the Tamkin Foundation Computer Network
    
                                  MPC@CFA.HARVARD.EDU
              URL http://cfa-www.harvard.edu/iau/mpc.html  ISSN 1523-6714
    
                                      2001 SJ276
    
    Observations:
         K01SR6J* C2001 09 27.25839 00 38 07.13 +54 39 31.5          18.5        704
         K01SR6J  C2001 09 27.27322 00 38 07.57 +54 38 48.4          18.7        704
         K01SR6J  C2001 09 27.28807 00 38 08.03 +54 38 05.8          19.0        704
         K01SR6J  C2001 09 27.30296 00 38 08.40 +54 37 22.1          18.6        704
         K01SR6J  C2001 09 28.04492 00 38 36.89 +54 00 32.7                      557
         K01SR6J  C2001 09 28.05016 00 38 37.01 +54 00 16.5                      557
         K01SR6J  C2001 09 28.05191 00 38 37.08 +54 00 11.9                      557
         K01SR6J  C2001 09 28.23095 00 38 45.70 +53 51 16.3          18.8 R      711
         K01SR6J  C2001 09 28.23523 00 38 45.84 +53 51 03.0          18.6 R      711
         K01SR6J  C2001 09 28.23952 00 38 45.95 +53 50 49.8          18.8 R      711
         K01SR6J 1C2001 09 28.24096 00 38 46.30 +53 50 37.8                      658
         K01SR6J 1C2001 09 28.24304 00 38 46.36 +53 50 31.6                      658
         K01SR6J 1C2001 09 28.24417 00 38 46.38 +53 50 27.9                      658
         K01SR6J  C2001 09 28.32806 00 38 48.43 +53 46 19.9          19.7 V      333
         K01SR6J  C2001 09 28.33194 00 38 48.55 +53 46 07.9          19.5 V      333
         K01SR6J  C2001 09 28.75770 00 39 06.69 +53 24 02.1          17.9 R      046
         K01SR6J  C2001 09 28.75925 00 39 06.67 +53 23 56.2                      046
         K01SR6J  C2001 09 28.76056 00 39 06.67 +53 23 52.7                      046
         K01SR6J  C2001 09 28.76167 00 39 06.73 +53 23 49.1          17.6 R      046
         K01SR6J  C2001 09 28.76278 00 39 06.75 +53 23 44.9                      046
    
    Observer details:
    046 Klet.  Observers J. Ticha, M. Tichy.  0.57-m f/5.2 reflector + CCD.
    333 Desert Eagle Observatory.  Observer W. K. Yeung.  0.45-m reflector + CCD.
    557 Ondrejov.  Observer L. Sarounova.  0.65-m f/3.6 reflector + CCD.
    658 National Research Council of Canada.  Observer D. D. Balam.  1.82-m
        Plaskett reflector + CCD.
    704 Lincoln Laboratory ETS, New Mexico.  Observers M. Blythe, F. Shelly,
        M. Bezpalko, R. Huber, L. Manguso, S. Adams, J. Piscitelli.  Measurers
        J. Stuart, R. Sayer, J. B. Evans, H. Viggh.  1.0-m f/2.15 reflector + CCD.
    711 McDonald Observatory.  Observer J. G. Ries.  0.76-m reflector + CCD.
    
    Orbital elements:
    2001 SJ276
    Epoch 2001 Sept. 28.0 TT = JDT 2452180.5                Spahr
    M  16.77199              (2000.0)            P               Q
    n   0.45933519     Peri.  126.08104     +0.88143219     +0.37420107
    a   1.6636025      Node   214.76230     -0.38002285     +0.92420704
    e   0.2381112      Incl.   30.36023     +0.28046378     +0.07625557
    P   2.15           H   18.5           G   0.15
    From 20 observations 2001 Sept. 27-28.
    
    Ephemeris:
    2001 SJ276               a,e,i = 1.66, 0.24, 30                  q = 1.2675
    Date    TT    R. A. (2000) Decl.     Delta      r     Elong.  Phase     V
    2001 09 18    00 30.65   +60 41.1    0.465    1.283   116.7    44.4    19.1
    2001 09 28    00 38.60   +54 02.8    0.412    1.296   127.7    37.7    18.7
    2001 10 08    00 44.20   +43 48.4    0.373    1.313   141.9    28.0    18.2
    2001 10 18    00 49.07   +30 18.7    0.358    1.333   157.0    17.0    17.8
    2001 10 28    00 54.71   +16 00.6    0.377    1.356   161.7    13.3    17.8
    2001 11 07    01 01.84   +04 01.3    0.429    1.382   151.1    20.3    18.4
    2001 11 17    01 10.62   -04 23.2    0.507    1.410   138.7    27.6    19.0
    2001 11 27    01 21.08   -09 37.4    0.603    1.440   128.1    32.6    19.6
    2001 12 07    01 32.99   -12 33.9    0.710    1.471   119.4    35.7    20.1
    2001 12 17    01 46.17   -13 56.6    0.824    1.502   112.0    37.4    20.5
    2001 12 27    02 00.48   -14 16.1    0.942    1.535   105.6    38.1    20.8
    2002 01 06    02 15.76   -13 53.7    1.063    1.567    99.9    38.2    21.1
    
    Timothy B. Spahr             (C) Copyright 2001 MPC           M.P.E.C. 2001-S67
    

    Read MPEC 2001-S66 Read MPEC 2001-S68


    MPEC number:

    Enter an MPEC number in one of the following forms:

    • 1997-B01 (the full form)
    • J97B01 (the packed version of the full form)
    • B01 (the abbreviated form)